Simultaneous Nadir Overpasses (SNOs) Predictions

Prediction of SNOs between AQUA and METOP-B Satellite Orbit:

Table of predicted SNOs for the next 14.0 days since TLE Epoch: 10/10/2014
Index Date (AQUA) Time (AQUA) Lat,Lon (AQUA) SZA (AQUA ) Date (METOP-B) Time (METOP-B) Lat,Lon (METOP-B) SZA (METOP-B ) Distance(km) Time Diff (sec)
1 10/11/2014 09:26:21 73.75, 32.82 80.72 10/11/2014 09:25:13 73.76, 32.85 80.74 2.12 68
2 10/11/2014 10:15:48 -73.83,-159.72 99.19 10/11/2014 10:15:53 -73.82,-159.69 99.19 1.43 5
3 10/11/2014 11:05:18 73.95, 7.65 80.96 10/11/2014 11:06:30 73.99, 8.05 80.99 12.95 72
4 10/14/2014 05:00:37 73.72, 99.29 81.75 10/14/2014 04:59:32 73.73, 99.20 81.77 3.01 65
5 10/14/2014 05:50:04 -73.80, -93.24 98.16 10/14/2014 05:50:12 -73.79, -93.33 98.17 3.45 8
6 10/14/2014 06:39:36 74.03, 73.89 82.09 10/14/2014 06:40:47 74.06, 74.64 82.11 23.01 71
7 10/17/2014 00:34:54 73.74, 165.70 82.81 10/17/2014 00:33:51 73.75, 165.67 82.82 1.76 63
8 10/17/2014 01:24:21 -73.81, -26.83 97.11 10/17/2014 01:24:31 -73.81, -26.86 97.11 1.22 10
9 10/17/2014 02:13:55 74.15, 140.06 83.25 10/17/2014 02:15:05 74.12, 141.23 83.21 35.75 70
10 10/19/2014 20:09:11 73.78,-127.97 83.87 10/19/2014 20:08:10 73.77,-127.87 83.86 3.53 61
11 10/19/2014 20:58:37 -73.80, 39.63 96.10 10/19/2014 20:58:50 -73.83, 39.61 96.07 3.04 13
12 10/19/2014 21:48:13 74.25,-153.74 84.37 10/19/2014 21:49:22 74.24,-152.06 84.35 50.69 69
13 10/22/2014 15:43:26 73.76, -61.48 84.85 10/22/2014 15:42:30 73.73, -61.53 84.83 3.27 56
14 10/22/2014 16:32:52 -73.83, 106.01 95.07 10/22/2014 16:33:08 -73.85, 106.07 95.05 3.09 16




NCC Satellite Simultaneous Nadir Overpasses (SNOs) Prediction Service
